Date,TemperatureHighF,TemperatureAvgF,TemperatureLowF,DewpointHighF,DewpointAvgF,DewpointLowF,HumidityHigh,HumidityAvg,HumidityLow,PressureMaxIn,PressureMinIn,WindSpeedMaxMPH,WindSpeedAvgMPH,GustSpeedMaxMPH,PrecipitationSumIn
2013-1-1,43,38,31,33,31,21,81,74,64,30.03,29.91,4,1,5,0.00
2013-1-2,39,34,26,30,23,15,86,65,46,30.23,29.99,6,2,8,0.00
2013-1-3,40,29,18,22,20,16,90,69,44,30.26,30.16,8,1,11,0.00
2013-1-4,41,31,22,24,20,17,82,64,44,30.25,30.15,9,2,11,0.00
2013-1-5,45,35,24,30,23,17,81,64,43,30.40,30.17,5,1,7,0.00
2013-1-6,46,38,26,32,29,24,92,71,55,30.18,30.04,5,2,7,0.00
2013-1-7,42,35,22,31,27,20,93,73,57,30.47,30.17,6,2,9,0.00
2013-1-8,54,34,21,34,27,19,95,77,40,30.45,30.35,6,1,8,0.00
2013-1-9,58,42,24,48,34,22,94,77,44,30.45,30.25,12,2,15,0.00
2013-1-10,56,44,31,35,32,28,88,64,42,30.60,30.45,5,1,5,0.00
2013-1-11,49,42,33,45,37,30,97,84,63,30.46,30.10,8,2,13,0.01
2013-1-12,68,48,37,57,45,36,98,90,66,30.18,30.07,5,1,8,0.00
2013-1-13,69,56,40,62,51,40,99,86,69,30.09,29.93,9,2,11,0.01
2013-1-14,63,53,39,58,47,37,94,80,69,30.30,29.94,8,4,10,0.35
2013-1-15,39,37,34,37,35,33,96,94,86,30.36,30.14,6,3,9,0.62
2013-1-16,43,38,33,41,36,32,97,95,92,30.15,29.84,6,2,9,0.25
2013-1-17,44,40,34,40,33,26,97,79,50,30.14,29.99,5,2,8,0.00
2013-1-18,40,34,27,28,19,13,76,57,35,30.48,30.12,8,3,10,0.00
2013-1-19,56,40,25,30,25,21,83,57,33,30.41,29.98,12,5,17,0.00
2013-1-20,54,44,30,33,22,8,63,43,20,30.08,29.87,14,5,20,0.00
2013-1-21,48,32,23,24,16,10,82,53,26,30.08,29.80,17,4,27,0.00
2013-1-22,26,18,14,12,-2,-6,57,42,29,30.31,29.98,12,5,15,0.00
2013-1-23,26,20,12,16,2,-2,88,48,32,30.36,30.13,8,2,11,0.00
2013-1-24,25,18,10,16,8,2,92,67,39,30.58,30.09,9,4,15,0.00
2013-1-25,24,18,10,18,12,5,84,75,48,30.57,30.08,11,3,15,0.00
2013-1-26,33,27,21,27,21,17,88,78,62,30.47,30.08,4,1,5,0.00
2013-1-27,39,32,22,25,21,16,76,65,49,30.59,30.45,5,2,8,0.00
2013-1-28,54,42,32,46,36,25,92,82,72,30.46,30.09,7,4,13,0.12
2013-1-29,74,57,41,57,50,40,97,79,54,30.13,29.93,8,2,11,0.00
2013-1-30,70,60,52,62,55,47,98,86,73,29.93,29.25,17,5,24,2.28
2013-1-31,55,38,29,55,26,14,99,61,46,29.90,29.19,19,10,25,0.04
2013-2-1,31,23,13,25,10,3,91,58,41,30.41,29.80,14,5,18,0.00
2013-2-2,33,22,10,24,14,5,90,73,43,30.40,30.03,10,4,16,0.00
2013-2-3,37,31,27,29,23,12,92,74,50,30.03,29.82,15,4,19,0.00
2013-2-4,38,30,19,23,17,11,76,58,46,30.11,29.90,10,4,14,0.00
2013-2-5,42,36,31,36,31,23,90,82,71,29.94,29.84,5,1,6,0.00
2013-2-6,46,37,25,33,29,22,91,72,50,30.34,29.93,8,2,10,0.00
2013-2-7,42,33,23,32,27,21,93,80,64,30.42,30.18,6,1,6,0.00
2013-2-8,43,36,31,37,30,23,95,81,59,30.18,29.80,15,3,15,0.05
2013-2-9,42,32,20,24,18,14,83,56,32,30.41,30.04,10,4,16,0.00
2013-2-10,47,32,15,30,19,12,91,62,33,30.48,30.20,11,3,19,0.02
2013-2-11,65,52,38,52,38,23,93,64,24,30.20,29.73,20,7,28,0.00
2013-2-12,59,48,35,28,23,15,69,40,18,29.97,29.82,13,5,18,0.00
2013-2-13,42,34,28,34,29,23,96,82,65,29.93,29.66,6,1,9,0.06
2013-2-14,49,36,25,32,28,24,97,76,43,30.03,29.83,6,2,10,0.00
2013-2-15,57,39,27,40,32,24,95,77,44,30.06,29.90,8,2,11,0.28
2013-2-16,35,32,26,32,24,13,97,75,54,30.01,29.88,7,3,12,0.00
2013-2-17,26,23,20,19,10,4,86,56,41,30.26,29.91,13,6,18,0.00
2013-2-18,47,31,12,24,15,7,85,54,28,30.41,30.14,6,2,10,0.00
2013-2-19,52,42,34,41,29,15,84,61,39,30.13,29.70,16,8,22,0.01
2013-2-20,37,31,24,19,15,12,64,51,36,30.18,29.88,16,7,19,0.00
2013-2-21,39,29,20,19,15,11,73,58,42,30.35,30.17,7,3,14,0.00
2013-2-22,36,31,27,29,24,19,89,75,67,30.38,30.17,4,1,6,0.00
2013-2-23,53,41,34,42,35,29,94,80,63,30.17,29.83,3,1,7,0.00
2013-2-24,50,40,28,40,29,18,97,67,35,30.16,29.83,13,5,18,0.00
2013-2-25,44,30,18,26,20,15,89,69,43,30.25,30.15,3,1,5,0.00
2013-2-26,39,31,22,38,29,19,97,91,79,30.23,29.66,10,4,16,0.36
2013-2-27,51,43,36,44,36,32,97,77,52,29.71,29.60,14,4,18,0.01
2013-2-28,42,39,35,35,28,25,83,64,53,29.77,29.65,11,4,14,0.00
2013-3-1,38,36,31,28,26,22,77,67,61,29.93,29.77,5,3,9,0.00
2013-3-2,35,32,29,23,21,18,79,65,53,29.93,29.85,6,3,11,0.00
2013-3-3,38,30,22,21,18,14,81,61,46,30.00,29.86,10,4,13,0.00
2013-3-4,45,32,22,19,15,11,76,51,28,30.09,30.00,8,3,10,0.00
2013-3-5,52,39,25,32,24,18,95,58,31,30.10,29.74,8,2,10,0.03
2013-3-6,39,34,31,35,31,28,97,89,66,30.08,29.67,8,3,18,0.49
2013-3-7,41,38,33,30,28,25,75,65,56,30.23,30.08,9,4,17,0.03
2013-3-8,42,37,28,29,26,24,84,66,58,30.38,30.22,9,4,17,0.00
2013-3-9,56,36,20,31,26,18,93,69,33,30.42,30.29,3,1,6,0.00
2013-3-10,63,46,25,34,29,23,93,58,31,30.33,30.17,9,2,14,0.00
2013-3-11,59,52,42,50,35,21,77,55,26,30.19,29.84,10,4,15,0.00
2013-3-12,58,50,34,52,43,30,97,76,48,30.00,29.72,10,4,19,0.67
2013-3-13,46,36,29,31,25,18,89,65,36,30.12,29.93,16,6,19,0.00
2013-3-14,43,35,27,20,18,14,64,50,36,30.19,30.10,12,5,16,0.00
2013-3-15,60,40,21,37,26,17,86,60,39,30.14,29.81,11,3,15,0.00
2013-3-16,64,45,36,53,40,31,94,83,63,29.90,29.60,11,3,13,0.10
2013-3-17,38,34,31,35,32,30,95,93,87,30.27,29.90,7,2,9,0.10
2013-3-18,36,32,31,32,30,29,96,93,83,30.29,29.90,3,1,4,0.28
2013-3-19,56,42,32,41,25,6,97,61,17,29.97,29.76,25,7,28,0.30
2013-3-20,50,41,31,29,15,7,74,36,22,30.01,29.76,15,7,23,0.00
2013-3-21,34,29,23,26,15,9,82,55,40,29.96,29.80,11,4,14,0.00
2013-3-22,46,34,21,21,16,11,71,50,33,30.04,29.91,9,4,14,0.00
2013-3-23,54,38,20,26,21,17,87,55,24,30.07,29.92,6,2,11,0.00
2013-3-24,38,33,29,31,26,23,95,78,56,30.00,29.63,6,1,8,0.00
2013-3-25,41,33,30,36,31,28,97,92,75,29.75,29.54,3,0,3,0.40
2013-3-26,44,36,26,34,29,24,95,77,53,30.07,29.75,7,2,11,0.18
2013-3-27,44,38,28,32,27,24,86,67,48,30.18,30.07,11,4,16,0.01
2013-3-28,46,40,33,31,28,25,79,63,50,30.27,30.14,10,3,12,0.00
2013-3-29,54,42,31,35,29,24,89,64,34,30.29,30.17,11,2,12,0.00
2013-3-30,59,42,26,36,28,23,91,63,28,30.26,30.09,6,1,8,0.00
2013-3-31,51,42,34,47,39,30,95,88,77,30.09,29.76,3,1,5,0.09
2013-4-1,58,46,35,45,36,20,95,69,43,30.01,29.79,16,4,18,0.00
2013-4-2,47,38,27,23,17,10,70,44,23,30.20,30.01,11,4,17,0.00
2013-4-3,50,36,20,26,16,10,88,52,20,30.40,30.20,11,3,15,0.00
2013-4-4,48,35,21,34,21,16,93,60,32,30.42,30.07,8,2,15,0.13
2013-4-5,63,48,34,41,33,27,96,62,28,30.07,29.86,8,3,14,0.03
2013-4-6,60,46,30,28,23,18,72,43,20,30.31,30.08,7,2,9,0.00
2013-4-7,70,56,40,45,39,27,67,52,39,30.21,29.96,14,6,19,0.00
2013-4-8,79,65,45,51,47,41,87,55,32,30.08,29.90,11,4,19,0.02
2013-4-9,84,74,54,58,54,48,85,52,38,30.09,29.91,17,4,17,0.00
2013-4-10,89,74,55,63,55,49,81,54,34,29.99,29.76,17,3,19,0.00
2013-4-11,86,71,52,62,55,47,92,60,27,29.86,29.66,15,3,17,0.00
2013-4-12,78,67,55,65,54,38,97,67,34,29.78,29.52,25,4,25,0.50
2013-4-13,70,58,43,44,35,23,82,44,19,29.96,29.78,19,4,21,0.00
2013-4-14,70,55,36,45,39,27,87,56,33,30.12,29.96,12,3,12,0.00
2013-4-15,64,58,52,54,50,42,94,76,55,30.23,30.07,11,2,11,0.13
2013-4-16,76,65,56,62,57,53,92,77,58,30.26,30.09,19,5,22,0.00
2013-4-17,78,66,56,64,60,55,98,83,54,30.19,30.09,15,3,15,0.11
2013-4-18,75,67,60,64,59,56,91,76,59,30.16,29.91,17,4,23,0.00
2013-4-19,75,66,52,65,58,37,94,75,58,29.91,29.57,25,7,28,0.45
2013-4-20,58,50,40,38,29,23,73,46,28,30.34,29.78,22,6,23,0.00
2013-4-21,54,44,32,32,28,23,84,55,34,30.58,30.34,14,3,14,0.00
2013-4-22,58,45,30,39,32,27,92,63,31,30.54,30.34,14,3,15,0.00
2013-4-23,65,50,40,48,41,35,89,71,49,30.38,30.08,12,3,12,0.00
2013-4-24,77,59,38,59,49,37,96,72,43,30.09,29.76,24,5,25,0.01
2013-4-25,66,52,42,42,34,27,69,51,24,30.31,30.04,11,3,12,0.00
2013-4-26,67,52,36,41,36,32,85,57,31,30.47,30.31,6,2,9,0.00
2013-4-27,72,57,37,46,41,35,94,60,33,30.40,30.23,6,2,9,0.00
2013-4-28,61,51,46,48,44,42,87,79,52,30.23,30.18,3,1,4,0.00
2013-4-29,64,58,51,57,53,48,93,85,75,30.11,29.98,7,3,10,0.05
2013-4-30,63,57,53,57,54,48,95,88,75,30.27,30.06,10,4,14,0.00
2013-5-1,72,60,52,50,43,34,88,58,26,30.38,30.27,9,3,12,0.00
2013-5-2,71,56,37,51,43,36,95,66,31,30.40,30.28,10,3,15,0.00
2013-5-3,66,49,37,50,43,36,96,82,50,30.36,30.28,7,2,11,0.00
2013-5-4,66,54,41,49,42,36,88,66,47,30.30,30.14,8,4,0,0.00
2013-5-5,66,53,41,45,41,37,87,65,35,30.20,30.08,7,4,0,0.00
2013-5-6,59,53,48,56,50,44,96,89,73,30.14,29.99,11,6,16,0.14
2013-5-7,61,57,53,59,56,52,97,95,87,29.99,29.88,10,5,13,2.48
2013-5-8,67,55,49,58,53,48,98,93,68,30.00,29.92,7,1,8,0.23
2013-5-9,78,61,48,61,53,48,98,78,38,30.03,29.93,6,2,11,0.03
2013-5-10,82,65,49,63,56,48,97,78,42,30.03,29.84,10,3,13,0.60
2013-5-11,63,61,59,61,59,58,96,95,91,29.87,29.79,3,1,5,0.00
2013-5-12,61,55,45,56,37,30,92,53,32,30.05,29.77,9,4,0,0.00
2013-5-13,57,46,37,37,32,24,92,61,31,30.20,30.03,11,3,15,0.00
2013-5-14,68,50,30,49,38,29,96,68,34,30.23,30.00,6,2,9,0.00
2013-5-15,93,68,45,66,52,43,96,63,23,30.01,29.70,13,4,19,0.00
2013-5-16,80,71,62,64,58,51,87,63,41,29.95,29.78,10,2,12,0.00
2013-5-17,82,68,52,62,58,51,97,73,44,30.08,29.93,5,2,10,0.00
2013-5-18,70,64,61,65,61,59,95,89,79,30.16,30.07,5,2,8,0.00
2013-5-19,71,64,58,65,61,57,97,90,78,30.17,30.05,5,2,6,0.00
2013-5-20,85,72,64,69,65,62,97,80,52,30.09,29.94,6,2,11,0.00
2013-5-21,89,74,59,71,65,58,98,77,43,29.99,29.83,6,2,7,0.00
2013-5-22,90,73,64,68,66,63,97,80,42,29.91,29.79,10,2,11,0.46
2013-5-23,82,68,62,69,64,60,98,87,58,29.87,29.72,9,2,18,0.70
2013-5-24,62,55,45,61,45,31,98,71,48,30.22,29.76,10,5,19,0.01
2013-5-25,63,52,39,40,35,31,78,55,34,30.27,30.16,9,3,13,0.00
2013-5-26,72,56,38,44,36,26,95,57,19,30.26,30.15,7,2,9,0.00
2013-5-27,65,55,39,54,46,38,96,73,47,30.30,30.17,2,1,4,0.00
2013-5-28,85,68,51,67,59,49,97,76,50,30.20,30.02,6,2,12,0.00
2013-5-29,89,76,62,67,63,59,93,67,44,30.12,30.03,6,2,14,0.00
2013-5-30,92,76,61,70,64,59,95,69,35,30.18,30.08,5,2,8,0.00
2013-5-31,89,75,58,68,63,57,97,69,36,30.14,29.99,9,3,13,0.00
2013-6-1,90,78,63,70,65,61,94,68,44,30.03,29.87,11,3,17,0.00
2013-6-2,83,73,67,71,66,62,97,80,65,29.89,29.80,8,3,15,0.78
2013-6-3,80,71,64,68,64,58,97,81,58,29.97,29.82,6,1,10,0.01
2013-6-4,77,64,52,58,50,43,97,66,37,30.13,29.97,6,2,11,0.00
2013-6-5,79,70,53,63,58,51,95,67,47,30.16,30.00,7,3,14,0.00
2013-6-6,71,64,62,63,60,56,97,87,67,30.02,29.82,4,1,7,0.88
2013-6-7,68,65,64,66,64,63,98,97,91,29.82,29.64,7,2,12,0.34
2013-6-8,82,69,59,66,62,58,98,80,44,30.07,29.77,3,1,6,0.02
2013-6-9,76,68,59,71,65,58,98,91,79,30.17,30.05,5,2,9,0.28
2013-6-10,81,70,66,73,68,65,98,94,75,30.08,29.78,8,2,16,0.88
2013-6-11,81,72,63,68,64,61,97,76,56,29.88,29.80,11,3,17,0.01
2013-6-12,89,76,63,73,66,60,94,75,50,29.89,29.77,6,2,11,0.00
2013-6-13,80,70,66,72,66,56,96,85,68,29.79,29.50,13,3,26,0.29
2013-6-14,78,68,59,58,55,52,91,64,42,30.02,29.67,8,3,13,0.00
2013-6-15,84,68,52,64,57,51,97,71,38,30.10,29.98,4,1,10,0.00
2013-6-16,81,71,58,69,63,56,96,76,59,30.03,29.89,7,2,10,0.00
2013-6-17,88,76,65,71,67,64,95,76,49,29.96,29.84,5,2,8,0.00
2013-6-18,75,68,64,69,65,62,97,90,76,29.92,29.78,5,1,8,0.45
2013-6-19,77,68,63,66,63,60,98,85,58,30.13,29.89,7,3,12,0.02
2013-6-20,80,71,62,68,64,61,97,80,61,30.22,30.13,7,2,12,0.00
2013-6-21,84,73,60,70,64,59,95,74,54,30.26,30.17,5,1,10,0.00
2013-6-22,89,74,60,70,64,58,95,73,41,30.23,30.09,7,2,9,0.00
2013-6-23,89,75,64,72,66,54,97,77,32,30.17,30.04,7,1,12,0.00
2013-6-24,86,74,64,76,68,63,96,83,52,30.14,30.02,12,2,15,0.09
2013-6-25,89,74,64,74,67,63,96,83,56,30.06,29.96,5,2,8,0.00
2013-6-26,83,75,70,73,71,68,96,87,69,29.87,29.81,14,1,14,0.24
2013-6-27,83,74,65,74,69,65,98,84,63,29.83,29.61,7,2,11,0.01
2013-6-28,90,76,66,73,67,60,93,74,41,29.64,29.45,10,3,22,0.01
2013-6-29,86,73,62,68,64,60,94,75,46,29.69,29.52,8,2,13,0.00
2013-6-30,87,75,65,74,68,64,98,81,55,29.82,29.68,5,2,9,0.01
2013-7-1,84,76,70,72,69,67,93,81,62,29.92,29.80,6,2,12,0.00
2013-7-2,81,75,70,73,70,68,97,85,71,30.12,29.92,7,3,12,0.01
2013-7-3,81,75,71,74,71,68,95,87,75,30.20,30.11,6,2,11,0.05
2013-7-4,87,78,69,75,71,68,96,79,62,30.22,30.12,10,4,14,0.00
2013-7-5,88,79,68,73,70,66,96,77,54,30.19,30.08,10,4,16,0.00
2013-7-6,91,79,68,74,70,66,97,76,49,30.18,30.03,8,3,14,0.00
2013-7-7,90,76,68,75,70,67,96,83,56,30.10,29.96,11,3,19,0.32
2013-7-8,85,74,65,71,68,64,98,81,55,30.11,30.03,5,2,9,0.00
2013-7-9,84,76,68,74,70,66,95,83,64,30.11,29.99,6,2,13,0.01
2013-7-10,86,77,72,76,72,70,93,86,70,30.00,29.84,8,2,11,0.00
2013-7-11,82,75,66,72,69,64,97,82,63,29.93,29.85,7,2,10,0.55
2013-7-12,71,67,64,67,65,63,97,94,82,30.07,29.93,5,1,8,1.18
2013-7-13,83,74,65,72,68,65,98,85,65,30.23,30.06,3,1,7,0.10
2013-7-14,88,77,68,73,70,67,98,81,54,30.31,30.23,6,2,11,0.01
2013-7-15,92,78,66,77,70,65,98,80,51,30.32,30.19,5,1,9,0.00
2013-7-16,91,80,68,78,73,67,98,80,55,30.27,30.15,6,2,10,0.00
2013-7-17,91,81,71,78,73,69,97,80,55,30.23,30.08,6,2,11,0.00
2013-7-18,94,82,71,78,74,70,97,79,52,30.13,29.99,4,1,6,0.00
2013-7-19,95,78,69,78,72,67,97,84,52,30.01,29.87,10,2,19,0.03
2013-7-20,92,78,68,75,71,67,98,80,51,29.92,29.79,7,2,12,0.00
2013-7-21,87,74,66,74,69,64,97,85,58,29.95,29.88,12,1,19,0.17
2013-7-22,87,76,68,76,71,67,98,87,66,29.94,29.72,7,2,12,0.02
2013-7-23,88,77,69,74,69,66,97,78,52,29.75,29.64,6,2,9,0.01
2013-7-24,82,73,67,69,65,59,94,78,57,29.92,29.68,7,3,12,0.00
2013-7-25,77,67,58,63,58,53,93,72,52,30.06,29.91,7,3,21,0.00
2013-7-26,82,68,52,64,58,51,97,74,48,30.11,30.00,5,1,8,0.00
2013-7-27,78,69,60,70,65,59,97,88,75,30.03,29.89,8,2,13,0.03
2013-7-28,85,74,66,71,66,61,96,78,51,29.99,29.86,4,1,8,0.01
2013-7-29,80,67,52,61,57,51,97,72,44,30.18,29.99,5,1,8,0.00
2013-7-30,83,69,54,64,59,53,96,73,44,30.24,30.12,5,1,11,0.00
2013-7-31,80,66,59,69,63,58,97,91,68,30.15,30.00,12,1,18,0.66
2013-8-1,82,71,65,72,66,63,98,87,66,30.00,29.81,5,1,8,0.14
2013-8-2,85,72,59,67,62,58,98,74,41,29.98,29.89,7,2,10,0.01
2013-8-3,76,68,62,70,64,60,97,88,74,29.98,29.92,4,1,6,0.02
2013-8-4,79,68,57,66,58,52,98,74,41,30.06,29.95,8,2,15,0.01
2013-8-5,79,66,51,62,56,50,97,74,43,30.12,29.99,4,1,9,0.00
2013-8-6,81,71,62,69,65,60,97,82,60,30.02,29.97,6,2,9,0.17
2013-8-7,84,74,65,72,69,64,97,83,65,30.03,29.95,9,3,15,0.00
2013-8-8,85,76,70,75,71,68,95,85,68,29.99,29.92,7,3,14,0.23
2013-8-9,88,79,72,76,72,69,94,80,58,29.95,29.86,10,3,17,0.00
2013-8-10,83,74,69,73,70,68,98,87,64,30.07,29.95,4,1,8,0.25
2013-8-11,86,76,69,73,70,68,97,83,56,30.09,29.97,4,1,7,0.07
2013-8-12,88,75,67,74,68,66,98,82,51,30.02,29.90,6,1,9,0.96
2013-8-13,84,74,67,71,68,63,98,84,59,29.90,29.74,5,2,8,0.37
2013-8-14,72,65,53,63,52,47,94,65,48,30.13,29.83,7,3,13,0.00
2013-8-15,76,61,47,60,52,46,97,76,45,30.20,30.09,4,1,6,0.00
2013-8-16,80,64,49,61,55,48,97,76,46,30.20,30.11,6,1,9,0.00
2013-8-17,77,64,50,62,57,49,98,78,52,30.27,30.19,5,1,11,0.00
2013-8-18,69,64,60,63,61,58,97,91,80,30.25,30.17,4,1,8,0.40
2013-8-19,82,70,61,71,66,60,97,88,65,30.18,30.03,5,1,7,0.00
2013-8-20,86,74,64,71,67,63,98,81,53,30.17,30.08,6,1,9,0.00
2013-8-21,87,71,63,74,67,62,98,89,59,30.19,30.06,10,2,15,0.46
2013-8-22,86,74,64,72,67,64,98,82,58,30.09,29.95,5,2,9,0.01
2013-8-23,72,66,58,68,65,57,98,94,76,30.14,29.95,9,2,14,2.19
2013-8-24,79,65,57,66,59,55,98,84,46,30.33,30.14,7,2,10,0.01
2013-8-25,82,66,52,65,59,52,98,79,45,30.41,30.25,4,1,8,0.00
2013-8-26,84,70,57,67,62,56,97,78,51,30.29,30.03,6,2,9,0.00
2013-8-27,85,74,64,73,68,62,94,83,62,30.04,29.91,5,1,10,0.00
2013-8-28,79,72,69,74,70,67,98,94,83,29.95,29.78,5,2,10,0.59
2013-8-29,82,73,65,72,70,64,99,88,63,30.01,29.83,8,3,11,0.03
2013-8-30,86,73,62,72,67,61,99,83,54,30.03,29.86,8,2,13,0.01
2013-8-31,86,76,66,75,70,65,97,82,62,29.89,29.78,5,2,9,0.00
2013-9-1,88,74,64,74,69,63,98,86,58,29.85,29.76,5,1,8,0.01
2013-9-2,88,77,67,73,70,66,98,82,57,29.81,29.71,6,2,10,0.00
2013-9-3,83,73,60,70,63,57,96,73,46,29.98,29.75,6,2,10,0.00
2013-9-4,81,66,53,65,59,52,97,80,51,30.10,29.98,4,1,7,0.00
2013-9-5,83,68,52,64,58,52,98,74,42,30.14,30.02,7,2,12,0.01
2013-9-6,78,62,50,58,53,49,97,75,39,30.25,30.11,5,1,9,0.00
2013-9-7,83,64,48,64,55,48,97,77,39,30.15,29.94,3,1,6,0.00
2013-9-8,87,71,56,70,63,54,96,77,53,30.02,29.87,6,2,9,0.00
2013-9-9,81,69,63,69,62,54,95,77,63,30.17,30.02,6,3,12,0.00
2013-9-10,91,77,65,75,69,63,96,80,52,30.17,30.06,6,2,9,0.00
2013-9-11,92,78,67,76,71,66,98,80,51,30.15,29.99,6,2,10,0.00
2013-9-12,90,74,66,74,68,62,97,82,54,30.01,29.74,11,2,20,0.00
2013-9-13,74,66,56,64,56,49,97,71,44,29.97,29.72,8,3,15,0.02
2013-9-14,67,56,45,50,46,43,94,73,49,30.18,29.97,7,2,14,0.00
2013-9-15,78,60,41,60,52,40,97,77,50,30.24,30.06,6,2,11,0.00
2013-9-16,67,60,51,60,56,50,97,88,65,30.25,30.05,6,1,11,0.06
2013-9-17,67,55,43,52,48,41,98,79,43,30.42,30.25,9,3,17,0.01
2013-9-18,73,54,37,55,47,36,97,80,51,30.34,30.16,5,1,9,0.00
2013-9-19,76,62,49,63,56,48,96,83,60,30.20,30.06,5,1,9,0.00
2013-9-20,80,65,53,68,60,52,98,85,62,30.08,29.92,5,2,10,0.00
2013-9-21,72,66,60,66,63,59,98,91,79,29.93,29.66,7,2,11,0.59
2013-9-22,71,61,48,61,54,45,99,81,48,29.98,29.75,6,2,10,0.01
2013-9-23,65,54,44,50,47,43,97,79,54,30.12,29.97,6,2,11,0.00
2013-9-24,73,57,42,56,50,41,97,79,53,30.13,29.95,5,1,9,0.00
2013-9-25,74,58,46,57,51,45,98,80,44,30.00,29.88,8,2,12,0.00
2013-9-26,74,60,48,56,51,46,97,76,40,30.08,29.94,7,2,11,0.00
2013-9-27,73,58,43,56,51,42,97,79,51,30.23,30.09,5,1,0,0.00
2013-9-28,65,55,45,58,51,44,98,88,65,30.32,30.23,3,1,0,0.00
2013-9-29,74,56,44,56,49,43,98,79,47,30.23,30.05,4,1,0,0.01
2013-9-30,77,61,44,59,52,43,98,77,45,30.10,29.97,5,1,9,0.00
2013-10-1,81,66,55,62,57,53,95,75,41,30.09,29.98,6,1,13,0.00
2013-10-2,85,65,50,64,57,49,97,77,44,30.12,30.00,4,1,9,0.00
2013-10-3,82,65,52,65,58,51,98,81,53,30.14,30.03,5,1,9,0.00
2013-10-4,85,68,55,67,61,54,98,81,51,30.11,30.01,4,1,7,0.00
2013-10-5,87,70,56,68,62,55,98,79,45,30.12,29.98,6,1,12,0.00
2013-10-6,86,72,56,68,62,55,98,74,46,30.01,29.86,10,3,19,0.00
2013-10-7,72,64,46,66,58,44,96,82,51,30.08,29.73,9,2,14,1.07
2013-10-8,66,53,40,50,44,40,98,77,46,30.30,30.08,8,2,14,0.00
2013-10-9,58,51,43,50,47,42,96,86,69,30.35,30.26,8,2,14,0.10
2013-10-10,55,52,50,54,51,49,98,96,91,30.26,30.05,3,1,6,0.93
2013-10-11,58,56,53,57,55,53,99,97,93,30.05,29.99,4,1,5,0.31
2013-10-12,62,60,57,61,59,56,98,97,93,30.18,30.01,8,3,15,0.15
2013-10-13,60,57,56,58,56,56,98,97,94,30.32,30.17,7,4,11,0.16
2013-10-14,63,58,51,58,56,50,98,93,81,30.33,30.23,5,2,8,0.00
2013-10-15,69,57,50,58,54,50,99,90,63,30.25,30.09,3,0,5,0.01
2013-10-16,70,58,46,60,54,46,99,88,65,30.09,29.91,5,1,11,0.01
2013-10-17,72,62,57,64,59,56,97,90,72,29.91,29.77,4,1,6,0.07